Home > Weather > Gröbming > Past weeks

Flag for Austria Weather for the Past 2 Weeks in Gröbming, Styria, Austria

Now
66 °F

Passing clouds.


Feels Like: 66 °F
Forecast: 40 / 68 °F
Wind: N/A

Location: Aigen Im Ennstal

Current Time: May 6, 2016 at 3:18:11 PM

Latest Report: May 6, 2016 at 2:00 PM


Visibility: 25 mi

Pressure: 30.00 "Hg (27.42 "Hg at 769m altitude)

Humidity: 38%

Dew Point: 40 °F

Location of GröbmingLocation

Historic Weather in Gröbming — Graph

°F

Gröbming Temperature Yesterday

Maximum temperature yesterday: 60 °F (at 4:00 PM)
Minimum temperature yesterday: 39 °F (at 6:00 AM)
Average temperature yesterday: 47 °F

High & Low Weather Summary for the Past Weeks

 TemperatureHumidityPressure
High72 °F (Apr 21, 5:00 PM)97% (May 6, 4:00 AM)30.39 "Hg (May 6, 4:00 AM)
Low26 °F (Apr 29, 7:00 AM)20% (Apr 21, 5:00 PM)29.59 "Hg (Apr 26, 2:00 PM)
Average46 °F67%30.02 "Hg
* Reported Apr 21 2:00 PM — May 6 2:00 PM, Gröbming, Weather by CustomWeather, © 2016

Note: Actual official high and low records may vary slightly from our data, if they occured in-between our weather recording intervals... More about our weather records

Advertising

Gröbming Weather History for the Previous 24 Hours

Scroll right to see more
 ConditionsComfort  
Time TempWeatherWind HumidityBarometerVisibility
2:00 PM
Fri, May 6
66 °FPassing clouds.N/A38%30.00 "Hg25 mi
1:00 PM65 °FMild.5 mph44%30.03 "HgN/A
12:00 PM60 °FCool.3 mph66%30.06 "HgN/A
11:00 AM50 °FSunny.N/A78%30.13 "Hg25 mi
10:00 AM45 °FQuite cool.1 mph91%30.19 "HgN/A
9:00 AM41 °FQuite cool.1 mph97%30.23 "HgN/A
8:00 AM40 °FFog.N/A97%30.24 "Hg1 mi
7:00 AM39 °FFog.1 mph97%30.25 "Hg0 mi
6:00 AM37 °FChilly.No wind96%30.27 "HgN/A
5:00 AM34 °FFog.N/A97%30.27 "Hg1 mi
4:00 AM36 °FChilly.1 mph97%30.28 "HgN/A
3:00 AM37 °FChilly.1 mph94%30.29 "HgN/A
2:00 AM39 °FClear.1 mph93%30.29 "Hg12 mi
1:00 AM40 °FChilly.1 mph93%30.29 "HgN/A
12:00 AM42 °FQuite cool.No wind94%30.29 "HgN/A
11:00 PM
Thu, May 5
44 °FClear.1 mph89%30.27 "Hg19 mi
10:00 PM46 °FCool.No wind86%30.27 "HgN/A
9:00 PM47 °FCool.1 mph83%30.26 "HgN/A
8:00 PM53 °FScattered clouds.N/A71%30.22 "Hg19 mi
7:00 PM53 °FCool.3 mph71%30.22 "HgN/A
6:00 PM55 °FCool.3 mph65%30.20 "HgN/A
5:00 PM58 °FSprinkles. Partly sunny.9 mph59%30.17 "Hg19 mi
4:00 PM60 °FRefreshingly cool.3 mph56%30.17 "HgN/A
3:00 PM58 °FRefreshingly cool.6 mph59%30.20 "HgN/A
Weather by CustomWeather, © 2016

See weather overviewHow to use our weather pages